EW5638 Weather Reports


Display with metric or nautical units.
time (UTC)temp
F
wind
direction
speed
MPH
gust
MPH
rain 1hr
in
rain 24hr
in
rain mn
in
humidity
%
barometer
mb
20260504160104 38 300 1.0 4.0 0.06 0.15 0.15 100 1005.5
20260504120107 38 48 0.0 3.0 0.00 0.00 0.00 29 1005.4
20260504081544 28 45 0.0 2.0 0.00 0.00 0.00 100 1005.8
20260504044543 31 297 0.0 1.0 0.00 0.00 0.00 12 1006.5
20260504043051 31 297 0.0 3.0 0.00 0.00 0.00 14 1006.5
20260504041535 31 297 0.0 2.0 0.00 0.00 0.00 14 1006.6
20260504040028 32 297 0.0 0.0 0.00 0.00 0.00 17 1006.7
20260504034523 32 297 0.0 1.0 0.00 0.00 0.00 21 1006.7
20260504033019 33 297 0.0 0.0 0.00 0.00 0.00 28 1006.6
20260504031515 33 297 0.0 0.0 0.00 0.00 0.00 34 1006.6
20260504030014 34 297 0.0 0.0 0.00 0.00 0.00 40 1006.6
20260504024506 34 297 0.0 0.0 0.00 0.00 0.00 46 1006.5
20260504023002 35 297 0.0 0.0 0.00 0.00 0.00 54 1006.6
20260504021558 36 297 0.0 0.0 0.00 0.00 0.00 56 1006.5
20260504020104 36 297 0.0 0.0 0.00 0.00 0.00 57 1006.5
20260504014549 37 297 0.0 0.0 0.00 0.00 0.00 57 1006.6
20260504013051 38 297 0.0 0.0 0.00 0.00 0.00 57 1006.6
20260504011540 39 297 0.0 0.0 0.00 0.00 0.00 56 1006.5
20260504010035 40 297 0.0 2.0 0.00 0.00 0.00 55 1006.4
20260504004541 41 297 0.0 3.0 0.00 0.00 0.00 54 1006.3
20260504003027 42 297 0.0 4.0 0.00 0.00 0.00 52 1006.2
20260504001531 43 297 0.0 6.0 0.00 0.00 0.00 51 1006.3
20260504000019 43 318 2.0 7.0 0.00 0.00 0.00 50 1006.2
20260503234518 44 350 2.0 10.0 0.00 0.02 0.00 49 1006.1
20260503233012 45 315 4.0 11.0 0.00 0.02 0.00 48 1005.9
20260503231505 45 315 4.0 11.0 0.00 0.02 0.00 47 1005.7
20260503230001 46 309 4.0 12.0 0.00 0.02 0.00 46 1005.7
20260503224557 47 253 4.0 16.0 0.00 0.05 0.00 46 1005.7
20260503223109 47 314 3.0 12.0 0.00 0.05 0.00 44 1005.5
20260503221551 47 269 6.0 14.0 0.00 0.05 0.00 43 1005.5
20260503220045 47 298 6.0 14.0 0.00 0.05 0.00 44 1005.5
20260503214552 48 311 5.0 13.0 0.00 0.05 0.00 44 1005.5
20260503213036 47 302 3.0 14.0 0.00 0.05 0.00 46 1005.5
20260503211531 46 279 4.0 12.0 0.00 0.05 0.00 47 1005.7
20260503210026 46 321 4.0 11.0 0.00 0.05 0.00 47 1005.7
20260503204527 46 248 3.0 12.0 0.00 0.05 0.00 47 1005.9
20260503203017 47 247 5.0 12.0 0.00 0.05 0.00 46 1005.8
20260503201513 47 245 6.0 15.0 0.00 0.05 0.00 44 1005.9
20260503200009 47 252 3.0 14.0 0.00 0.05 0.00 45 1006.0
20260503194505 48 300 4.0 13.0 0.00 0.05 0.00 44 1005.9
20260503193110 47 275 5.0 13.0 0.00 0.05 0.00 46 1005.9
20260503191601 47 274 5.0 11.0 0.00 0.05 0.00 45 1005.9
20260503190051 48 298 3.0 13.0 0.00 0.05 0.00 47 1005.8
20260503184547 48 292 5.0 14.0 0.00 0.06 0.00 45 1005.8
20260503183050 48 288 6.0 15.0 0.00 0.06 0.00 46 1005.9
20260503181555 48 277 4.0 12.0 0.00 0.06 0.00 46 1006.1
20260503180044 48 298 4.0 11.0 0.00 0.06 0.00 44 1006.2
20260503174529 48 246 4.0 15.0 0.00 0.06 0.00 44 1006.4
20260503173025 48 327 3.0 13.0 0.00 0.06 0.00 42 1006.4
20260503171525 48 288 4.0 10.0 0.00 0.06 0.00 42 1006.5